User: anonymous   Login
Location: Unspecified
(0.0000°N, 0.0000°E)
Time: 19:36:39
(UTC+00:00)
Language:

SIMPL - Orbit

View from above orbital plane
View from above orbital plane
View from above satellite
View from above satellite

Ground track
Ground track

The orbit data is extracted from the following two-line orbital elements,

1 42983U 98067NF  19049.53233409  .00003257  00000-0  49336-4 0  9994
2 42983  51.6386 223.0818 0004275  43.1407 316.9920 15.57930994 74607
Epoch (UTC): 18 February 2019 12:46:33
Eccentricity: 0.0004275
inclination: 51.6386°
perigee height: 391 km
apogee height: 396 km
right ascension of ascending node: 223.0818°
argument of perigee: 43.1407°
revolutions per day: 15.57930994
mean anomaly at epoch: 316.9920°
orbit number at epoch: 7460

The dashed part of the orbit path shows where the satellite is in the earth's shadow,  

DLR